Time,TemperatureF,DewpointF,PressureIn,WindDirection,WindDirectionDegrees,WindSpeedMPH,WindSpeedGustMPH,Humidity,HourlyPrecipIn,Conditions,Clouds,dailyrainin,SolarRadiationWatts/m^2,SoftwareType,DateUTC
2013-03-12 00:02:00,42.0,37.0,-100.00,WSW,250,7.0,12.0,82,0.00,,,0.01,0.000000,,2013-03-12 07:02:00,
2013-03-12 00:12:00,42.0,37.0,-100.00,WSW,250,7.0,12.0,82,0.00,,,0.01,0.000000,,2013-03-12 07:12:00,
2013-03-12 00:21:00,42.0,37.0,-100.00,WSW,250,7.0,12.0,82,0.00,,,0.01,0.000000,,2013-03-12 07:21:00,
2013-03-12 00:32:00,42.0,37.0,-100.00,WSW,250,7.0,12.0,82,0.00,,,0.01,0.000000,,2013-03-12 07:32:00,
2013-03-12 00:52:00,42.0,38.0,-100.00,WSW,249,5.0,8.0,86,0.00,,,0.01,0.000000,,2013-03-12 07:52:00,
2013-03-12 01:02:00,42.0,38.0,-100.00,WSW,249,5.0,8.0,86,0.00,,,0.01,0.000000,,2013-03-12 08:02:00,
2013-03-12 01:12:00,42.0,38.0,-100.00,WSW,249,5.0,8.0,86,0.00,,,0.01,0.000000,,2013-03-12 08:12:00,
2013-03-12 01:22:00,42.0,38.0,-100.00,WSW,249,5.0,8.0,86,0.00,,,0.01,0.000000,,2013-03-12 08:22:00,
2013-03-12 01:32:00,42.0,38.0,-100.00,WSW,249,5.0,8.0,86,0.00,,,0.01,0.000000,,2013-03-12 08:32:00,
2013-03-12 01:52:00,43.0,38.0,-100.00,West,259,5.0,7.0,82,0.00,,,0.01,0.000000,,2013-03-12 08:52:00,
2013-03-12 02:03:00,43.0,38.0,-100.00,West,259,5.0,7.0,82,0.00,,,0.01,0.000000,,2013-03-12 09:03:00,
2013-03-12 02:11:00,43.0,38.0,-100.00,West,259,5.0,7.0,82,0.00,,,0.01,0.000000,,2013-03-12 09:11:00,
2013-03-12 02:22:00,43.0,38.0,-100.00,West,259,5.0,7.0,82,0.00,,,0.01,0.000000,,2013-03-12 09:22:00,
2013-03-12 02:32:00,43.0,38.0,-100.00,West,259,5.0,7.0,82,0.00,,,0.01,0.000000,,2013-03-12 09:32:00,
2013-03-12 02:52:00,42.0,36.0,-100.00,WSW,237,4.0,7.0,78,0.00,,,0.01,0.000000,,2013-03-12 09:52:00,
2013-03-12 03:02:00,42.0,36.0,-100.00,WSW,237,4.0,7.0,78,0.00,,,0.01,0.000000,,2013-03-12 10:02:00,
2013-03-12 03:12:00,42.0,36.0,-100.00,WSW,237,4.0,7.0,78,0.00,,,0.01,0.000000,,2013-03-12 10:12:00,
2013-03-12 03:22:00,42.0,36.0,-100.00,WSW,237,4.0,7.0,78,0.00,,,0.01,0.000000,,2013-03-12 10:22:00,
2013-03-12 03:32:00,42.0,36.0,-100.00,WSW,237,4.0,7.0,78,0.00,,,0.01,0.000000,,2013-03-12 10:32:00,
2013-03-12 03:52:00,40.0,37.0,-100.00,West,265,5.0,7.0,90,0.00,,,0.01,0.000000,,2013-03-12 10:52:00,
2013-03-12 04:02:00,40.0,37.0,-100.00,West,265,5.0,7.0,90,0.00,,,0.01,0.000000,,2013-03-12 11:02:00,
2013-03-12 04:12:00,40.0,37.0,-100.00,West,265,5.0,7.0,90,0.00,,,0.01,0.000000,,2013-03-12 11:12:00,
2013-03-12 04:22:00,40.0,37.0,-100.00,West,265,5.0,7.0,90,0.00,,,0.01,0.000000,,2013-03-12 11:22:00,
2013-03-12 04:32:00,40.0,37.0,-100.00,West,265,5.0,7.0,90,0.00,,,0.01,0.000000,,2013-03-12 11:32:00,
2013-03-12 04:52:00,40.0,37.0,-100.00,SW,224,6.0,10.0,90,0.00,,,0.01,0.000000,,2013-03-12 11:52:00,
2013-03-12 05:02:00,40.0,37.0,-100.00,SW,224,6.0,10.0,90,0.00,,,0.01,0.000000,,2013-03-12 12:02:00,
2013-03-12 05:12:00,40.0,37.0,-100.00,SW,224,6.0,10.0,90,0.00,,,0.01,0.000000,,2013-03-12 12:12:00,
2013-03-12 05:22:00,40.0,37.0,-100.00,SW,224,6.0,10.0,90,0.00,,,0.01,0.000000,,2013-03-12 12:22:00,
2013-03-12 05:32:00,40.0,37.0,-100.00,SW,224,6.0,10.0,90,0.00,,,0.01,0.000000,,2013-03-12 12:32:00,
2013-03-12 05:52:00,40.0,36.0,-100.00,SW,228,5.0,11.0,87,0.00,,,0.01,0.000000,,2013-03-12 12:52:00,
2013-03-12 06:02:00,40.0,36.0,-100.00,SW,228,5.0,11.0,87,0.00,,,0.01,0.000000,,2013-03-12 13:02:00,
2013-03-12 06:12:00,40.0,36.0,-100.00,SW,228,5.0,11.0,87,0.00,,,0.01,0.000000,,2013-03-12 13:12:00,
2013-03-12 06:22:00,40.0,36.0,-100.00,SW,228,5.0,11.0,87,0.00,,,0.01,0.000000,,2013-03-12 13:22:00,
2013-03-12 06:32:00,40.0,36.0,-100.00,SW,228,5.0,11.0,87,0.00,,,0.01,0.000000,,2013-03-12 13:32:00,
2013-03-12 06:52:00,40.0,36.0,-100.00,SW,234,4.0,9.0,84,0.00,,,0.01,0.000000,,2013-03-12 13:52:00,
2013-03-12 07:02:00,40.0,36.0,-100.00,SW,234,4.0,9.0,84,0.00,,,0.01,0.000000,,2013-03-12 14:02:00,
2013-03-12 07:12:00,40.0,36.0,-100.00,SW,234,4.0,9.0,84,0.00,,,0.01,0.000000,,2013-03-12 14:12:00,
2013-03-12 07:22:00,40.0,36.0,-100.00,SW,234,4.0,9.0,84,0.00,,,0.01,0.000000,,2013-03-12 14:22:00,
2013-03-12 07:32:00,40.0,36.0,-100.00,SW,234,4.0,9.0,84,0.00,,,0.01,0.000000,,2013-03-12 14:32:00,
2013-03-12 07:53:00,40.0,36.0,-100.00,WSW,258,4.0,7.0,86,0.00,,,0.01,2.000000,,2013-03-12 14:53:00,
2013-03-12 08:02:00,40.0,36.0,-100.00,WSW,258,4.0,7.0,86,0.00,,,0.01,2.000000,,2013-03-12 15:02:00,
2013-03-12 08:12:00,40.0,36.0,-100.00,WSW,258,4.0,7.0,86,0.00,,,0.01,2.000000,,2013-03-12 15:12:00,
2013-03-12 08:22:00,40.0,36.0,-100.00,WSW,258,4.0,7.0,86,0.00,,,0.01,2.000000,,2013-03-12 15:22:00,
2013-03-12 08:32:00,40.0,36.0,-100.00,WSW,258,4.0,7.0,86,0.00,,,0.01,2.000000,,2013-03-12 15:32:00,
2013-03-12 08:53:00,42.0,37.0,-100.00,ENE,76,1.0,5.0,83,0.00,,,0.01,76.000000,,2013-03-12 15:53:00,
2013-03-12 09:02:00,42.0,37.0,-100.00,ENE,76,1.0,5.0,83,0.00,,,0.01,76.000000,,2013-03-12 16:02:00,
2013-03-12 09:12:00,42.0,37.0,-100.00,ENE,76,1.0,5.0,83,0.00,,,0.01,76.000000,,2013-03-12 16:12:00,
2013-03-12 09:22:00,42.0,37.0,-100.00,ENE,76,1.0,5.0,83,0.00,,,0.01,76.000000,,2013-03-12 16:22:00,
2013-03-12 09:32:00,42.0,37.0,-100.00,ENE,76,1.0,5.0,83,0.00,,,0.01,76.000000,,2013-03-12 16:32:00,
2013-03-12 09:53:00,42.0,37.0,-100.00,SSW,193,4.0,6.0,81,0.00,,,0.01,135.000000,,2013-03-12 16:53:00,
2013-03-12 10:02:00,42.0,37.0,-100.00,SSW,193,4.0,6.0,81,0.00,,,0.01,135.000000,,2013-03-12 17:02:00,
2013-03-12 10:12:00,42.0,37.0,-100.00,SSW,193,4.0,6.0,81,0.00,,,0.01,135.000000,,2013-03-12 17:12:00,
2013-03-12 10:22:00,42.0,37.0,-100.00,SSW,193,4.0,6.0,81,0.00,,,0.01,135.000000,,2013-03-12 17:22:00,
2013-03-12 10:33:00,42.0,37.0,-100.00,SSW,193,4.0,6.0,81,0.00,,,0.01,135.000000,,2013-03-12 17:33:00,
2013-03-12 10:53:00,43.0,36.0,-100.00,SSW,212,6.0,10.0,76,0.00,,,0.01,248.000000,,2013-03-12 17:53:00,
2013-03-12 11:02:00,43.0,36.0,-100.00,SSW,212,6.0,10.0,76,0.00,,,0.01,248.000000,,2013-03-12 18:02:00,
2013-03-12 11:12:00,43.0,36.0,-100.00,SSW,212,6.0,10.0,76,0.00,,,0.01,248.000000,,2013-03-12 18:12:00,
2013-03-12 11:22:00,43.0,36.0,-100.00,SSW,212,6.0,10.0,76,0.00,,,0.01,248.000000,,2013-03-12 18:22:00,
2013-03-12 11:32:00,43.0,36.0,-100.00,SSW,212,6.0,10.0,76,0.00,,,0.01,248.000000,,2013-03-12 18:32:00,
2013-03-12 11:53:00,44.0,37.0,-100.00,SSW,208,7.0,12.0,76,0.00,,,0.01,284.000000,,2013-03-12 18:53:00,
2013-03-12 12:03:00,44.0,37.0,-100.00,SSW,208,7.0,12.0,76,0.00,,,0.01,284.000000,,2013-03-12 19:03:00,
2013-03-12 12:12:00,44.0,37.0,-100.00,SSW,208,7.0,12.0,76,0.00,,,0.01,284.000000,,2013-03-12 19:12:00,
2013-03-12 12:22:00,44.0,37.0,-100.00,SSW,208,7.0,12.0,76,0.00,,,0.01,284.000000,,2013-03-12 19:22:00,
2013-03-12 12:32:00,44.0,37.0,-100.00,SSW,208,7.0,12.0,76,0.00,,,0.01,284.000000,,2013-03-12 19:32:00,
2013-03-12 12:53:00,47.0,39.0,-100.00,SSW,197,5.0,10.0,74,0.00,,,0.01,398.000000,,2013-03-12 19:53:00,
2013-03-12 13:02:00,47.0,39.0,-100.00,SSW,197,5.0,10.0,74,0.00,,,0.01,398.000000,,2013-03-12 20:02:00,
2013-03-12 13:12:00,47.0,39.0,-100.00,SSW,197,5.0,10.0,74,0.00,,,0.01,398.000000,,2013-03-12 20:12:00,
2013-03-12 13:22:00,47.0,39.0,-100.00,SSW,197,5.0,10.0,74,0.00,,,0.01,398.000000,,2013-03-12 20:22:00,
2013-03-12 13:32:00,47.0,39.0,-100.00,SSW,197,5.0,10.0,74,0.00,,,0.01,398.000000,,2013-03-12 20:32:00,
2013-03-12 13:53:00,50.0,38.0,-100.00,South,191,4.0,10.0,64,0.00,,,0.01,505.000000,,2013-03-12 20:53:00,
2013-03-12 14:02:00,50.0,38.0,-100.00,South,191,4.0,10.0,64,0.00,,,0.01,505.000000,,2013-03-12 21:02:00,
2013-03-12 14:12:00,50.0,38.0,-100.00,South,191,4.0,10.0,64,0.00,,,0.01,505.000000,,2013-03-12 21:12:00,
2013-03-12 14:22:00,50.0,38.0,-100.00,South,191,4.0,10.0,64,0.00,,,0.01,505.000000,,2013-03-12 21:22:00,
2013-03-12 14:32:00,50.0,38.0,-100.00,South,191,4.0,10.0,64,0.00,,,0.01,505.000000,,2013-03-12 21:32:00,
2013-03-12 14:52:00,53.0,37.0,-100.00,SSW,198,7.0,12.0,54,0.00,,,0.00,664.000000,,2013-03-12 21:52:00,
2013-03-12 15:02:00,53.0,37.0,-100.00,SSW,198,7.0,12.0,54,0.00,,,0.00,664.000000,,2013-03-12 22:02:00,
2013-03-12 15:12:00,53.0,37.0,-100.00,SSW,198,7.0,12.0,54,0.00,,,0.00,664.000000,,2013-03-12 22:12:00,
2013-03-12 15:22:00,53.0,37.0,-100.00,SSW,198,7.0,12.0,54,0.00,,,0.00,664.000000,,2013-03-12 22:22:00,
2013-03-12 15:32:00,53.0,37.0,-100.00,SSW,198,7.0,12.0,54,0.00,,,0.00,664.000000,,2013-03-12 22:32:00,
2013-03-12 15:34:00,56.0,37.0,-100.00,West,264,7.0,12.0,49,0.00,,,0.00,554.000000,,2013-03-12 22:34:00,
2013-03-12 15:53:00,56.0,37.0,-100.00,West,264,7.0,12.0,49,0.00,,,0.00,554.000000,,2013-03-12 22:53:00,
2013-03-12 16:02:00,56.0,37.0,-100.00,West,264,7.0,12.0,49,0.00,,,0.00,554.000000,,2013-03-12 23:02:00,
2013-03-12 16:12:00,56.0,37.0,-100.00,West,264,7.0,12.0,49,0.00,,,0.00,554.000000,,2013-03-12 23:12:00,
2013-03-12 16:22:00,56.0,37.0,-100.00,West,264,7.0,12.0,49,0.00,,,0.00,554.000000,,2013-03-12 23:22:00,
2013-03-12 16:52:00,56.0,33.0,-100.00,WNW,286,7.0,14.0,41,0.00,,,0.00,400.000000,,2013-03-12 23:52:00,
2013-03-12 17:02:00,56.0,33.0,-100.00,WNW,286,7.0,14.0,41,0.00,,,0.00,400.000000,,2013-03-13 00:02:00,
2013-03-12 17:12:00,56.0,33.0,-100.00,WNW,286,7.0,14.0,41,0.00,,,0.00,400.000000,,2013-03-13 00:12:00,
2013-03-12 17:22:00,56.0,33.0,-100.00,WNW,286,7.0,14.0,41,0.00,,,0.00,400.000000,,2013-03-13 00:22:00,
2013-03-12 17:32:00,56.0,33.0,-100.00,WNW,286,7.0,14.0,41,0.00,,,0.00,400.000000,,2013-03-13 00:32:00,
2013-03-12 17:53:00,53.0,32.0,-100.00,West,274,7.0,15.0,45,0.00,,,-99.99,210.000000,,2013-03-13 00:53:00,
2013-03-12 18:02:00,53.0,32.0,-100.00,West,274,7.0,15.0,45,0.00,,,-99.99,210.000000,,2013-03-13 01:02:00,
2013-03-12 18:12:00,53.0,32.0,-100.00,West,274,7.0,15.0,45,0.00,,,-99.99,210.000000,,2013-03-13 01:12:00,
2013-03-12 18:22:00,53.0,32.0,-100.00,West,274,7.0,15.0,45,0.00,,,-99.99,210.000000,,2013-03-13 01:22:00,
2013-03-12 18:31:00,53.0,32.0,-100.00,West,274,7.0,15.0,45,0.00,,,-99.99,210.000000,,2013-03-13 01:31:00,
2013-03-12 18:52:00,50.0,32.0,-100.00,WNW,297,5.0,12.0,50,0.00,,,0.00,68.000000,,2013-03-13 01:52:00,
2013-03-12 19:02:00,50.0,32.0,-100.00,WNW,297,5.0,12.0,50,0.00,,,0.00,68.000000,,2013-03-13 02:02:00,
2013-03-12 19:12:00,50.0,32.0,-100.00,WNW,297,5.0,12.0,50,0.00,,,0.00,68.000000,,2013-03-13 02:12:00,
2013-03-12 19:22:00,50.0,32.0,-100.00,WNW,297,5.0,12.0,50,0.00,,,0.00,68.000000,,2013-03-13 02:22:00,
2013-03-12 19:31:00,50.0,32.0,-100.00,WNW,297,5.0,12.0,50,0.00,,,0.00,68.000000,,2013-03-13 02:31:00,
2013-03-12 19:52:00,46.0,33.0,-100.00,NNW,330,6.0,11.0,60,0.00,,,0.00,10.000000,,2013-03-13 02:52:00,
2013-03-12 20:02:00,46.0,33.0,-100.00,NNW,330,6.0,11.0,60,0.00,,,0.00,10.000000,,2013-03-13 03:02:00,
2013-03-12 20:12:00,46.0,33.0,-100.00,NNW,330,6.0,11.0,60,0.00,,,0.00,10.000000,,2013-03-13 03:12:00,
2013-03-12 20:22:00,46.0,33.0,-100.00,NNW,330,6.0,11.0,60,0.00,,,0.00,10.000000,,2013-03-13 03:22:00,
2013-03-12 20:31:00,46.0,33.0,-100.00,NNW,330,6.0,11.0,60,0.00,,,0.00,10.000000,,2013-03-13 03:31:00,
2013-03-12 20:52:00,44.0,35.0,-100.00,NW,320,5.0,11.0,70,0.00,,,0.00,0.000000,,2013-03-13 03:52:00,
2013-03-12 21:02:00,44.0,35.0,-100.00,NW,320,5.0,11.0,70,0.00,,,0.00,0.000000,,2013-03-13 04:02:00,
2013-03-12 21:12:00,44.0,35.0,-100.00,NW,320,5.0,11.0,70,0.00,,,0.00,0.000000,,2013-03-13 04:12:00,
2013-03-12 21:22:00,44.0,35.0,-100.00,NW,320,5.0,11.0,70,0.00,,,0.00,0.000000,,2013-03-13 04:22:00,
2013-03-12 21:31:00,44.0,35.0,-100.00,NW,320,5.0,11.0,70,0.00,,,0.00,0.000000,,2013-03-13 04:31:00,
2013-03-12 21:53:00,44.0,35.0,-100.00,WNW,293,6.0,11.0,70,0.00,,,0.00,0.000000,,2013-03-13 04:53:00,
2013-03-12 22:02:00,44.0,35.0,-100.00,WNW,293,6.0,11.0,70,0.00,,,0.00,0.000000,,2013-03-13 05:02:00,
2013-03-12 22:12:00,44.0,35.0,-100.00,WNW,293,6.0,11.0,70,0.00,,,0.00,0.000000,,2013-03-13 05:12:00,
2013-03-12 22:22:00,44.0,35.0,-100.00,WNW,293,6.0,11.0,70,0.00,,,0.00,0.000000,,2013-03-13 05:22:00,
2013-03-12 22:32:00,44.0,35.0,-100.00,WNW,293,6.0,11.0,70,0.00,,,0.00,0.000000,,2013-03-13 05:32:00,
2013-03-12 22:52:00,44.0,34.0,-100.00,WNW,299,7.0,11.0,68,0.00,,,0.00,0.000000,,2013-03-13 05:52:00,
2013-03-12 23:02:00,44.0,34.0,-100.00,WNW,299,7.0,11.0,68,0.00,,,0.00,0.000000,,2013-03-13 06:02:00,
2013-03-12 23:12:00,44.0,34.0,-100.00,WNW,299,7.0,11.0,68,0.00,,,0.00,0.000000,,2013-03-13 06:12:00,
2013-03-12 23:22:00,44.0,34.0,-100.00,WNW,299,7.0,11.0,68,0.00,,,0.00,0.000000,,2013-03-13 06:22:00,
2013-03-12 23:32:00,44.0,34.0,-100.00,WNW,299,7.0,11.0,68,0.00,,,0.00,0.000000,,2013-03-13 06:32:00,
2013-03-12 23:52:00,45.0,32.0,-100.00,WSW,246,5.0,10.0,60,0.00,,,-99.99,0.000000,,2013-03-13 06:52:00,